,,,PA_Meas_PMT16A,,PR_Meas_QMR101_102,,RH_Meas_QMH101,,SR_Meas_QMS101,,TA_Meas_QMH101,,GenWind,,GenWind,
date,time,status,PA,status,PR,status,RH,status,SR,status,TA,status,DirAvg,status,SpdAvg,
2008-04-18, 00:00:04,VALID,1000.78,VALID,0,VALID,90.3565,VALID,0,VALID,25.2046,VALID,205,VALID,0.407422,
2008-04-18, 00:01:04,VALID,1000.72,VALID,0,VALID,90.387,VALID,0,VALID,25.1656,VALID,206,VALID,0.265234,
2008-04-18, 00:02:04,VALID,1000.74,VALID,0,VALID,90.4327,VALID,0,VALID,25.1656,VALID,206,VALID,0.0128906,
2008-04-18, 00:03:04,VALID,1000.68,VALID,0,VALID,90.5472,VALID,0,VALID,25.1461,VALID,206,VALID,0,
2008-04-18, 00:04:04,VALID,1000.67,VALID,0,VALID,90.6692,VALID,0,VALID,25.1461,VALID,206,VALID,0,
2008-04-18, 00:05:04,VALID,1000.67,VALID,0,VALID,90.7074,VALID,0,VALID,25.1267,VALID,206,VALID,0.225391,
2008-04-18, 00:06:04,VALID,1000.64,VALID,0,VALID,90.7455,VALID,0,VALID,25.1267,VALID,206,VALID,0.246875,
2008-04-18, 00:07:04,VALID,1000.65,VALID,0,VALID,90.9363,VALID,0,VALID,25.1072,VALID,206,VALID,0.351953,
2008-04-18, 00:08:04,VALID,1000.64,VALID,0,VALID,91.0125,VALID,0,VALID,25.0682,VALID,206,VALID,0,
2008-04-18, 00:09:04,VALID,1000.6,VALID,0,VALID,91.1346,VALID,0,VALID,25.0488,VALID,206,VALID,0,
2008-04-18, 00:10:04,VALID,1000.63,VALID,0,VALID,91.2719,VALID,0,VALID,25.0098,VALID,207,VALID,0.388672,
2008-04-18, 00:11:04,VALID,1000.65,VALID,0,VALID,91.3864,VALID,0,VALID,24.969,VALID,207,VALID,0.478516,
2008-04-18, 00:12:04,VALID,1000.66,VALID,0,VALID,91.5695,VALID,0,VALID,24.9514,VALID,207,VALID,0.103516,
2008-04-18, 00:13:04,VALID,1000.69,VALID,0,VALID,91.6381,VALID,0,VALID,24.9319,VALID,207,VALID,0.285547,
2008-04-18, 00:14:04,VALID,1000.71,VALID,0,VALID,91.7983,VALID,0,VALID,24.9125,VALID,207,VALID,0.147266,
2008-04-18, 00:15:04,VALID,1000.78,VALID,0,VALID,91.9814,VALID,0.100563,VALID,24.893,VALID,207,VALID,0.257422,
2008-04-18, 00:16:04,VALID,1000.85,VALID,0,VALID,92.1035,VALID,0,VALID,24.8735,VALID,207,VALID,0.153906,
2008-04-18, 00:17:04,VALID,1000.85,VALID,0,VALID,92.1492,VALID,0,VALID,24.8754,VALID,221,VALID,0.461719,
2008-04-18, 00:18:04,VALID,1000.91,VALID,0,VALID,92.2027,VALID,0.100563,VALID,24.854,VALID,246,VALID,0.0699219,
2008-04-18, 00:19:04,VALID,1000.95,VALID,0,VALID,92.195,VALID,0,VALID,24.8735,VALID,315,VALID,0.552734,
2008-04-18, 00:20:04,VALID,1001.01,VALID,0,VALID,92.2027,VALID,0,VALID,24.893,VALID,315,VALID,0.0148437,
2008-04-18, 00:21:04,VALID,1001.02,VALID,0,VALID,92.0958,VALID,0,VALID,24.9319,VALID,306,VALID,0,
2008-04-18, 00:22:04,VALID,1001.11,VALID,0,VALID,92.0348,VALID,0,VALID,24.9125,VALID,306,VALID,0.344141,
2008-04-18, 00:23:04,VALID,1001.12,VALID,0,VALID,91.7831,VALID,0,VALID,24.9514,VALID,298,VALID,1.11992,
2008-04-18, 00:24:04,VALID,1001.2,VALID,0,VALID,91.6763,VALID,0,VALID,24.9904,VALID,297,VALID,0.326562,
2008-04-18, 00:25:04,VALID,1001.26,VALID,0,VALID,91.5313,VALID,0,VALID,25.0469,VALID,297,VALID,0.410547,
2008-04-18, 00:26:04,VALID,1001.3,VALID,0,VALID,91.2262,VALID,0,VALID,25.0858,VALID,296,VALID,0.539844,
2008-04-18, 00:27:04,VALID,1001.4,VALID,0,VALID,91.0354,VALID,0.100563,VALID,25.1248,VALID,297,VALID,0.360938,
2008-04-18, 00:28:04,VALID,1001.46,VALID,0,VALID,90.8447,VALID,0.100563,VALID,25.2046,VALID,288,VALID,0.366016,
2008-04-18, 00:29:04,VALID,1001.54,VALID,0,VALID,90.5014,VALID,0,VALID,25.2435,VALID,260,VALID,0.509766,
2008-04-18, 00:30:04,VALID,1001.59,VALID,0,VALID,90.1734,VALID,0,VALID,25.2825,VALID,294,VALID,0.890234,
2008-04-18, 00:31:04,VALID,1001.68,VALID,0,VALID,90.0437,VALID,0,VALID,25.3409,VALID,323,VALID,0.289063,
2008-04-18, 00:32:04,VALID,1001.72,VALID,0,VALID,89.8606,VALID,0.100563,VALID,25.3584,VALID,290,VALID,0.725,
2008-04-18, 00:33:04,VALID,1001.77,VALID,0,VALID,89.5478,VALID,0,VALID,25.3993,VALID,284,VALID,0.860937,
2008-04-18, 00:34:04,VALID,1001.8,VALID,0,VALID,89.5325,VALID,0,VALID,25.4169,VALID,276,VALID,0.550781,
2008-04-18, 00:35:04,VALID,1001.86,VALID,0,VALID,89.4181,VALID,0,VALID,25.4577,VALID,288,VALID,1.21836,
2008-04-18, 00:36:04,VALID,1001.9,VALID,0,VALID,89.3494,VALID,0,VALID,25.4577,VALID,291,VALID,0.690234,
2008-04-18, 00:37:04,VALID,1001.93,VALID,0,VALID,89.1969,VALID,0,VALID,25.4577,VALID,271,VALID,1.54922,
2008-04-18, 00:38:04,VALID,1001.98,VALID,0,VALID,89.4639,VALID,0,VALID,25.4772,VALID,269,VALID,0.347266,
2008-04-18, 00:39:04,VALID,1002.02,VALID,0,VALID,89.5478,VALID,0,VALID,25.4967,VALID,277,VALID,0.433984,
2008-04-18, 00:40:04,VALID,1002.08,VALID,0,VALID,89.4944,VALID,0,VALID,25.4967,VALID,260,VALID,1.09727,
2008-04-18, 00:41:04,VALID,1002.08,VALID,0,VALID,89.38,VALID,0,VALID,25.4967,VALID,272,VALID,0.81875,
2008-04-18, 00:42:04,VALID,1002.06,VALID,0,VALID,89.1587,VALID,0.100563,VALID,25.4967,VALID,302,VALID,1.02813,
2008-04-18, 00:43:04,VALID,1002.02,VALID,0,VALID,88.9833,VALID,0,VALID,25.5162,VALID,282,VALID,1.85781,
2008-04-18, 00:44:04,VALID,1002.08,VALID,0,VALID,88.6857,VALID,0,VALID,25.5162,VALID,279,VALID,2.26875,
2008-04-18, 00:45:04,VALID,1002.24,VALID,0,VALID,88.6018,VALID,0,VALID,25.5746,VALID,277,VALID,2.05703,
2008-04-18, 00:46:04,VALID,1002.3,VALID,0,VALID,88.5713,VALID,0,VALID,25.6136,VALID,287,VALID,2.74727,
2008-04-18, 00:47:04,VALID,1002.5,VALID,0,VALID,87.4956,VALID,0,VALID,25.5765,VALID,298,VALID,4.59414,
2008-04-18, 00:48:04,VALID,1002.39,VALID,0,VALID,85.5198,VALID,0,VALID,25.4012,VALID,302,VALID,4.66484,
2008-04-18, 00:49:04,VALID,1002.36,VALID,0,VALID,86.7251,VALID,0,VALID,25.1267,VALID,310,VALID,1.89102,
2008-04-18, 00:50:04,VALID,1002.29,VALID,0.5,VALID,88.2127,VALID,0,VALID,24.7761,VALID,267,VALID,1.39648,
2008-04-18, 00:51:04,VALID,1002.32,VALID,0.5,VALID,89.914,VALID,0,VALID,24.4451,VALID,297,VALID,1.97266,
2008-04-18, 00:52:04,VALID,1002.35,VALID,1,VALID,91.2872,VALID,0,VALID,24.1142,VALID,308,VALID,2.39531,
2008-04-18, 00:53:04,VALID,1002.25,VALID,0.5,VALID,92.3552,VALID,0,VALID,23.8611,VALID,291,VALID,1.85703,
2008-04-18, 00:54:04,VALID,1002.3,VALID,0.5,VALID,93.141,VALID,0,VALID,23.7053,VALID,290,VALID,2.41758,
2008-04-18, 00:55:04,VALID,1002.32,VALID,0,VALID,93.4462,VALID,0,VALID,23.5691,VALID,284,VALID,2.6082,
2008-04-18, 00:56:04,VALID,1002.27,VALID,0,VALID,93.942,VALID,0,VALID,23.4523,VALID,270,VALID,2.77891,
2008-04-18, 00:57:04,VALID,1002.3,VALID,0.5,VALID,94.2701,VALID,0,VALID,23.3744,VALID,297,VALID,3.77734,
2008-04-18, 00:58:04,VALID,1002.24,VALID,0.5,VALID,94.7431,VALID,0,VALID,23.3355,VALID,286,VALID,2.21367,
2008-04-18, 00:59:04,VALID,1002.23,VALID,0,VALID,95.0024,VALID,0,VALID,23.2966,VALID,300,VALID,2.24141,
2008-04-18, 01:00:04,VALID,1002.19,VALID,0.5,VALID,95.2542,VALID,0,VALID,23.2771,VALID,295,VALID,3.86367,
2008-04-18, 01:01:04,VALID,1002.23,VALID,0.5,VALID,95.4068,VALID,0,VALID,23.2771,VALID,284,VALID,3.01172,
2008-04-18, 01:02:04,VALID,1002.17,VALID,0,VALID,95.4831,VALID,0,VALID,23.2771,VALID,307,VALID,3.39297,
2008-04-18, 01:03:04,VALID,1002.22,VALID,0.5,VALID,95.6662,VALID,0,VALID,23.2771,VALID,297,VALID,1.64336,
2008-04-18, 01:04:04,VALID,1002.23,VALID,1,VALID,95.7424,VALID,0,VALID,23.2966,VALID,291,VALID,3.73164,
2008-04-18, 01:05:04,VALID,1002.22,VALID,0.5,VALID,95.8187,VALID,0,VALID,23.2966,VALID,299,VALID,1.45781,
2008-04-18, 01:06:04,VALID,1002.27,VALID,0.5,VALID,95.8645,VALID,0,VALID,23.2966,VALID,293,VALID,3.16875,
2008-04-18, 01:07:04,VALID,1002.18,VALID,0,VALID,95.8035,VALID,0,VALID,23.2966,VALID,302,VALID,2.58164,
2008-04-18, 01:08:04,VALID,1002.18,VALID,0.5,VALID,95.7501,VALID,0,VALID,23.2771,VALID,299,VALID,3.46484,
2008-04-18, 01:09:04,VALID,1002.18,VALID,0,VALID,95.8721,VALID,0,VALID,23.2771,VALID,281,VALID,2.04258,
2008-04-18, 01:10:04,VALID,1002.13,VALID,0.5,VALID,95.8187,VALID,0,VALID,23.2771,VALID,294,VALID,2.86445,
2008-04-18, 01:11:04,VALID,1002.14,VALID,0.5,VALID,95.7577,VALID,0,VALID,23.2382,VALID,297,VALID,4.10273,
2008-04-18, 01:12:04,VALID,1002.02,VALID,0.5,VALID,95.8035,VALID,0,VALID,23.2187,VALID,322,VALID,1.97305,
2008-04-18, 01:13:04,VALID,1001.93,VALID,0.5,VALID,95.7196,VALID,0.100563,VALID,23.1798,VALID,303,VALID,2.47695,
2008-04-18, 01:14:04,VALID,1001.85,VALID,0,VALID,95.8264,VALID,0,VALID,23.1197,VALID,299,VALID,1.4,
2008-04-18, 01:15:04,VALID,1001.79,VALID,0,VALID,95.7424,VALID,0.100563,VALID,23.0825,VALID,320,VALID,2.92266,
2008-04-18, 01:16:04,VALID,1001.79,VALID,0,VALID,95.689,VALID,0.100563,VALID,22.9834,VALID,300,VALID,1.52656,
2008-04-18, 01:17:04,VALID,1001.78,VALID,0,VALID,95.5746,VALID,0.100563,VALID,22.9268,VALID,342,VALID,1.71719,
2008-04-18, 01:18:04,VALID,1001.81,VALID,0.5,VALID,95.5746,VALID,0,VALID,22.8684,VALID,312,VALID,1.7793,
2008-04-18, 01:19:04,VALID,1001.81,VALID,0,VALID,95.6204,VALID,0,VALID,22.7888,VALID,312,VALID,2.2543,
2008-04-18, 01:20:04,VALID,1001.83,VALID,0,VALID,95.8187,VALID,0,VALID,22.7711,VALID,316,VALID,1.28711,
2008-04-18, 01:21:04,VALID,1001.82,VALID,0.5,VALID,95.7959,VALID,0,VALID,22.7127,VALID,300,VALID,1.55313,
2008-04-18, 01:22:04,VALID,1001.88,VALID,0,VALID,95.834,VALID,0.100563,VALID,22.6933,VALID,279,VALID,2.01055,
2008-04-18, 01:23:04,VALID,1001.88,VALID,0,VALID,95.7653,VALID,0,VALID,22.6332,VALID,296,VALID,3.08008,
2008-04-18, 01:24:04,VALID,1001.85,VALID,0,VALID,95.895,VALID,0.100563,VALID,22.6349,VALID,286,VALID,0.869141,
2008-04-18, 01:25:04,VALID,1001.78,VALID,0.5,VALID,96.0018,VALID,0.100563,VALID,22.6349,VALID,285,VALID,1.60469,
2008-04-18, 01:26:04,VALID,1001.69,VALID,0,VALID,96.0934,VALID,0.100563,VALID,22.6332,VALID,300,VALID,1.9832,
2008-04-18, 01:27:04,VALID,1001.64,VALID,0,VALID,96.2002,VALID,0,VALID,22.6738,VALID,285,VALID,0.876172,
2008-04-18, 01:28:04,VALID,1001.62,VALID,0,VALID,96.2994,VALID,0,VALID,22.6738,VALID,296,VALID,1.35938,
2008-04-18, 01:29:04,VALID,1001.58,VALID,0,VALID,96.2994,VALID,0.100563,VALID,22.6915,VALID,297,VALID,1.76133,
2008-04-18, 01:30:04,VALID,1001.56,VALID,0,VALID,96.307,VALID,0.100563,VALID,22.6915,VALID,301,VALID,0.873438,
2008-04-18, 01:31:04,VALID,1001.53,VALID,0,VALID,96.3146,VALID,0,VALID,22.7127,VALID,288,VALID,1.09414,
2008-04-18, 01:32:04,VALID,1001.5,VALID,0,VALID,96.3528,VALID,0,VALID,22.711,VALID,304,VALID,2.41055,
2008-04-18, 01:33:04,VALID,1001.54,VALID,0,VALID,96.368,VALID,0,VALID,22.7305,VALID,289,VALID,2.10195,
2008-04-18, 01:34:04,VALID,1001.51,VALID,0,VALID,96.368,VALID,0,VALID,22.7516,VALID,298,VALID,1.27539,
2008-04-18, 01:35:04,VALID,1001.5,VALID,0,VALID,96.429,VALID,0,VALID,22.7694,VALID,301,VALID,0.346094,
2008-04-18, 01:36:04,VALID,1001.47,VALID,0,VALID,96.429,VALID,0.100563,VALID,22.7888,VALID,251,VALID,0.907812,
2008-04-18, 01:37:04,VALID,1001.48,VALID,0,VALID,96.4672,VALID,0.100563,VALID,22.8083,VALID,262,VALID,0.620313,
2008-04-18, 01:38:04,VALID,1001.44,VALID,0.5,VALID,96.4901,VALID,0,VALID,22.8278,VALID,259,VALID,0.182812,
2008-04-18, 01:39:04,VALID,1001.31,VALID,0,VALID,96.513,VALID,0,VALID,22.8489,VALID,9,VALID,0.552734,
2008-04-18, 01:40:04,VALID,1001.33,VALID,0,VALID,96.513,VALID,0,VALID,22.8684,VALID,297,VALID,1.27031,
2008-04-18, 01:41:04,VALID,1001.29,VALID,0,VALID,96.5282,VALID,0,VALID,22.8879,VALID,293,VALID,2.13984,
2008-04-18, 01:42:04,VALID,1001.17,VALID,0,VALID,96.5359,VALID,0,VALID,22.9091,VALID,299,VALID,1.17539,
2008-04-18, 01:43:04,VALID,1001.14,VALID,0,VALID,96.5435,VALID,0,VALID,22.9073,VALID,30,VALID,0.410156,
2008-04-18, 01:44:04,VALID,1001.1,VALID,0,VALID,96.5664,VALID,0,VALID,22.9268,VALID,315,VALID,0.741797,
2008-04-18, 01:45:04,VALID,1001.02,VALID,0,VALID,96.5282,VALID,0.100563,VALID,22.9268,VALID,301,VALID,0.609375,
2008-04-18, 01:46:04,VALID,1000.96,VALID,0,VALID,96.5587,VALID,0.100563,VALID,22.9463,VALID,300,VALID,0.620313,
2008-04-18, 01:47:04,VALID,1000.92,VALID,0,VALID,96.5664,VALID,0,VALID,22.9657,VALID,290,VALID,1.10039,
2008-04-18, 01:48:04,VALID,1000.9,VALID,0,VALID,96.5816,VALID,0,VALID,22.9445,VALID,297,VALID,1.65,
2008-04-18, 01:49:04,VALID,1000.79,VALID,0,VALID,96.5206,VALID,0,VALID,22.9445,VALID,296,VALID,2.20391,
2008-04-18, 01:50:04,VALID,1000.79,VALID,0,VALID,96.5969,VALID,0.100563,VALID,22.9445,VALID,287,VALID,1.90859,
2008-04-18, 01:51:04,VALID,1000.7,VALID,0,VALID,96.6121,VALID,0,VALID,23.0046,VALID,312,VALID,1.86328,
2008-04-18, 01:52:04,VALID,1000.71,VALID,0,VALID,96.5969,VALID,0,VALID,22.9834,VALID,302,VALID,1.71719,
2008-04-18, 01:53:04,VALID,1000.66,VALID,0,VALID,96.635,VALID,0,VALID,23.0029,VALID,301,VALID,2.3582,
2008-04-18, 01:54:04,VALID,1000.62,VALID,0,VALID,96.6579,VALID,0,VALID,23.0418,VALID,285,VALID,2.11719,
2008-04-18, 01:55:04,VALID,1000.6,VALID,0,VALID,96.6655,VALID,0,VALID,23.0825,VALID,4,VALID,0.964063,
2008-04-18, 01:56:04,VALID,1000.59,VALID,0,VALID,96.7037,VALID,0,VALID,23.1214,VALID,287,VALID,2.15977,
2008-04-18, 01:57:04,VALID,1000.58,VALID,0,VALID,96.7342,VALID,0,VALID,23.1798,VALID,294,VALID,1.55508,
2008-04-18, 01:58:04,VALID,1000.6,VALID,0,VALID,96.7647,VALID,0,VALID,23.2187,VALID,302,VALID,1.15703,
2008-04-18, 01:59:04,VALID,1000.61,VALID,0,VALID,96.8105,VALID,0,VALID,23.2966,VALID,265,VALID,1.93711,
2008-04-18, 02:00:04,VALID,1000.62,VALID,0,VALID,96.8181,VALID,0,VALID,23.355,VALID,286,VALID,1.32148,
2008-04-18, 02:01:04,VALID,1000.67,VALID,0,VALID,96.8258,VALID,0,VALID,23.4134,VALID,289,VALID,2.74531,
2008-04-18, 02:02:04,VALID,1000.64,VALID,0,VALID,96.8334,VALID,0,VALID,23.4505,VALID,282,VALID,1.98945,
2008-04-18, 02:03:04,VALID,1000.62,VALID,0.5,VALID,96.8486,VALID,0,VALID,23.5496,VALID,288,VALID,2.00781,
2008-04-18, 02:04:04,VALID,1000.62,VALID,0,VALID,96.841,VALID,0,VALID,23.5673,VALID,287,VALID,1.97305,
2008-04-18, 02:05:04,VALID,1000.64,VALID,0,VALID,96.8029,VALID,0,VALID,23.6275,VALID,277,VALID,1.25547,
2008-04-18, 02:06:04,VALID,1000.62,VALID,0,VALID,96.8029,VALID,0,VALID,23.6646,VALID,291,VALID,1.72656,
2008-04-18, 02:07:04,VALID,1000.69,VALID,0,VALID,96.78,VALID,0,VALID,23.7248,VALID,295,VALID,1.98555,
2008-04-18, 02:08:04,VALID,1000.7,VALID,0,VALID,96.7647,VALID,0.100563,VALID,23.7637,VALID,304,VALID,1.11016,
2008-04-18, 02:09:04,VALID,1000.68,VALID,0,VALID,96.7495,VALID,0.100563,VALID,23.7637,VALID,306,VALID,1.96914,
2008-04-18, 02:10:04,VALID,1000.71,VALID,0,VALID,96.7266,VALID,0.100563,VALID,23.7619,VALID,299,VALID,2.34297,
2008-04-18, 02:11:04,VALID,1000.73,VALID,0,VALID,96.7189,VALID,0,VALID,23.7619,VALID,277,VALID,2.03281,
2008-04-18, 02:12:04,VALID,1000.74,VALID,0,VALID,96.6808,VALID,0,VALID,23.7619,VALID,287,VALID,1.78437,
2008-04-18, 02:13:04,VALID,1000.71,VALID,0,VALID,96.6121,VALID,0,VALID,23.7832,VALID,253,VALID,1.79023,
2008-04-18, 02:14:04,VALID,1000.74,VALID,0,VALID,96.6045,VALID,0,VALID,23.7832,VALID,294,VALID,1.19687,
2008-04-18, 02:15:04,VALID,1000.76,VALID,0,VALID,96.5359,VALID,0,VALID,23.7443,VALID,288,VALID,2.02266,
2008-04-18, 02:16:04,VALID,1000.76,VALID,0,VALID,96.513,VALID,0,VALID,23.7035,VALID,287,VALID,1.48047,
2008-04-18, 02:17:04,VALID,1000.83,VALID,0,VALID,96.4519,VALID,0,VALID,23.6646,VALID,288,VALID,1.75117,
2008-04-18, 02:18:04,VALID,1000.82,VALID,0.5,VALID,96.3985,VALID,0.100563,VALID,23.6452,VALID,282,VALID,2.0375,
2008-04-18, 02:19:04,VALID,1000.84,VALID,0,VALID,96.4519,VALID,0.100563,VALID,23.6469,VALID,266,VALID,0.976953,
2008-04-18, 02:20:04,VALID,1000.82,VALID,0,VALID,96.4214,VALID,0,VALID,23.6062,VALID,297,VALID,1.65195,
2008-04-18, 02:21:04,VALID,1000.82,VALID,0,VALID,96.4214,VALID,0,VALID,23.608,VALID,296,VALID,1.4707,
2008-04-18, 02:22:04,VALID,1000.86,VALID,0,VALID,96.429,VALID,0.100563,VALID,23.608,VALID,309,VALID,0.882422,
2008-04-18, 02:23:04,VALID,1000.88,VALID,0.5,VALID,96.4596,VALID,0,VALID,23.5885,VALID,287,VALID,1.55078,
2008-04-18, 02:24:04,VALID,1000.88,VALID,0,VALID,96.4519,VALID,0,VALID,23.5691,VALID,299,VALID,1.93672,
2008-04-18, 02:25:04,VALID,1000.91,VALID,0,VALID,96.4672,VALID,0.100563,VALID,23.5284,VALID,311,VALID,1.67148,
2008-04-18, 02:26:04,VALID,1000.93,VALID,0,VALID,96.4748,VALID,0.100563,VALID,23.5496,VALID,298,VALID,1.39727,
2008-04-18, 02:27:04,VALID,1001,VALID,0,VALID,96.5053,VALID,0.100563,VALID,23.5496,VALID,16,VALID,1.1207,
2008-04-18, 02:28:04,VALID,1001.01,VALID,0,VALID,96.4596,VALID,0,VALID,23.5089,VALID,288,VALID,1.79219,
2008-04-18, 02:29:04,VALID,1001.04,VALID,0,VALID,96.5053,VALID,0.100563,VALID,23.5107,VALID,292,VALID,0.965625,
2008-04-18, 02:30:04,VALID,1001.02,VALID,0.5,VALID,96.5053,VALID,0.100563,VALID,23.4894,VALID,300,VALID,1.65,
2008-04-18, 02:31:04,VALID,1001.05,VALID,0,VALID,96.5282,VALID,0,VALID,23.4894,VALID,229,VALID,0.447266,
2008-04-18, 02:32:04,VALID,1001.04,VALID,0,VALID,96.5206,VALID,0.100563,VALID,23.4894,VALID,286,VALID,1.74609,
2008-04-18, 02:33:04,VALID,1001.06,VALID,0,VALID,96.5664,VALID,0.100563,VALID,23.4894,VALID,8,VALID,0.417969,
2008-04-18, 02:34:04,VALID,1001.06,VALID,0,VALID,96.5816,VALID,0.100563,VALID,23.4912,VALID,287,VALID,0.75625,
2008-04-18, 02:35:04,VALID,1001.08,VALID,0,VALID,96.5893,VALID,0.100563,VALID,23.5107,VALID,344,VALID,0.555078,
2008-04-18, 02:36:04,VALID,1001.06,VALID,0,VALID,96.574,VALID,0.100563,VALID,23.4912,VALID,294,VALID,1.56133,
2008-04-18, 02:37:04,VALID,1001.09,VALID,0,VALID,96.6045,VALID,0,VALID,23.47,VALID,226,VALID,0.551172,
2008-04-18, 02:38:04,VALID,1001.11,VALID,0.5,VALID,96.6274,VALID,0.100563,VALID,23.4894,VALID,304,VALID,1.25859,
2008-04-18, 02:39:04,VALID,1001.11,VALID,0,VALID,96.6427,VALID,0,VALID,23.493,VALID,347,VALID,0.803125,
2008-04-18, 02:40:04,VALID,1001.1,VALID,0,VALID,96.6808,VALID,0,VALID,23.5319,VALID,224,VALID,0.2875,
2008-04-18, 02:41:04,VALID,1001.13,VALID,0,VALID,96.6961,VALID,0,VALID,23.5319,VALID,287,VALID,0.630469,
2008-04-18, 02:42:04,VALID,1001.17,VALID,0,VALID,96.7037,VALID,0,VALID,23.5514,VALID,262,VALID,0.276953,
2008-04-18, 02:43:04,VALID,1001.18,VALID,0,VALID,96.6961,VALID,0,VALID,23.5302,VALID,288,VALID,1.03203,
2008-04-18, 02:44:04,VALID,1001.19,VALID,0.5,VALID,96.7037,VALID,0,VALID,23.5709,VALID,278,VALID,0.116016,
2008-04-18, 02:45:04,VALID,1001.22,VALID,0,VALID,96.6961,VALID,0,VALID,23.5709,VALID,276,VALID,0.308984,
2008-04-18, 02:46:04,VALID,1001.2,VALID,0,VALID,96.6961,VALID,0,VALID,23.5496,VALID,275,VALID,0.166797,
2008-04-18, 02:47:04,VALID,1001.24,VALID,0,VALID,96.7189,VALID,0,VALID,23.5709,VALID,317,VALID,0.274609,
2008-04-18, 02:48:04,VALID,1001.26,VALID,0,VALID,96.7113,VALID,0,VALID,23.5691,VALID,317,VALID,0.30625,
2008-04-18, 02:49:04,VALID,1001.23,VALID,0.5,VALID,96.7266,VALID,0,VALID,23.5903,VALID,324,VALID,0.296875,
2008-04-18, 02:50:04,VALID,1001.26,VALID,0,VALID,96.7189,VALID,0,VALID,23.5691,VALID,3,VALID,0.606641,
2008-04-18, 02:51:04,VALID,1001.29,VALID,0,VALID,96.7189,VALID,0,VALID,23.6098,VALID,358,VALID,0.574219,
2008-04-18, 02:52:04,VALID,1001.25,VALID,0,VALID,96.6808,VALID,0,VALID,23.5691,VALID,357,VALID,0.933203,
2008-04-18, 02:53:04,VALID,1001.26,VALID,0,VALID,96.6884,VALID,0,VALID,23.5284,VALID,352,VALID,0.653516,
2008-04-18, 02:54:04,VALID,1001.26,VALID,0,VALID,96.7037,VALID,0.100563,VALID,23.5478,VALID,354,VALID,0.865234,
2008-04-18, 02:55:04,VALID,1001.26,VALID,0.5,VALID,96.7266,VALID,0.100563,VALID,23.5691,VALID,3,VALID,0.398047,
2008-04-18, 02:56:04,VALID,1001.28,VALID,0,VALID,96.7418,VALID,0.100563,VALID,23.5673,VALID,347,VALID,0.284766,
2008-04-18, 02:57:04,VALID,1001.28,VALID,0,VALID,96.7266,VALID,0.100563,VALID,23.5673,VALID,327,VALID,0.483203,
2008-04-18, 02:58:04,VALID,1001.33,VALID,0,VALID,96.7647,VALID,0,VALID,23.5673,VALID,285,VALID,0.668359,
2008-04-18, 02:59:04,VALID,1001.33,VALID,0,VALID,96.7495,VALID,0.100563,VALID,23.608,VALID,306,VALID,0.172266,
2008-04-18, 03:00:04,VALID,1001.36,VALID,0,VALID,96.7723,VALID,0,VALID,23.5868,VALID,300,VALID,0.383203,
2008-04-18, 03:01:04,VALID,1001.36,VALID,0,VALID,96.7876,VALID,0,VALID,23.6275,VALID,352,VALID,0.0398437,
2008-04-18, 03:02:04,VALID,1001.41,VALID,0.5,VALID,96.7876,VALID,0.100563,VALID,23.6257,VALID,352,VALID,0,
2008-04-18, 03:03:04,VALID,1001.43,VALID,0,VALID,96.7723,VALID,0,VALID,23.6469,VALID,330,VALID,0.120703,
2008-04-18, 03:04:04,VALID,1001.46,VALID,0,VALID,96.7723,VALID,0.100563,VALID,23.6257,VALID,330,VALID,0.183984,
2008-04-18, 03:05:04,VALID,1001.45,VALID,0,VALID,96.7876,VALID,0.100563,VALID,23.6664,VALID,354,VALID,0.151562,
2008-04-18, 03:06:04,VALID,1001.44,VALID,0,VALID,96.7952,VALID,0.100563,VALID,23.6859,VALID,356,VALID,0.447656,
2008-04-18, 03:07:04,VALID,1001.44,VALID,0,VALID,96.7876,VALID,0,VALID,23.6452,VALID,352,VALID,0.596875,
2008-04-18, 03:08:04,VALID,1001.44,VALID,0,VALID,96.7647,VALID,0.100563,VALID,23.6859,VALID,351,VALID,0.814062,
2008-04-18, 03:09:04,VALID,1001.42,VALID,0,VALID,96.78,VALID,0,VALID,23.6469,VALID,349,VALID,0.303125,
2008-04-18, 03:10:04,VALID,1001.43,VALID,0,VALID,96.78,VALID,0,VALID,23.6469,VALID,350,VALID,0.543359,
2008-04-18, 03:11:04,VALID,1001.41,VALID,0,VALID,96.7723,VALID,0,VALID,23.6664,VALID,352,VALID,0.236719,
2008-04-18, 03:12:04,VALID,1001.41,VALID,0,VALID,96.78,VALID,0,VALID,23.6664,VALID,358,VALID,0.310156,
2008-04-18, 03:13:04,VALID,1001.41,VALID,0,VALID,96.8105,VALID,0,VALID,23.6859,VALID,352,VALID,0.309766,
2008-04-18, 03:14:04,VALID,1001.43,VALID,0.5,VALID,96.8029,VALID,0,VALID,23.6859,VALID,352,VALID,0,
2008-04-18, 03:15:04,VALID,1001.4,VALID,0,VALID,96.78,VALID,0,VALID,23.7071,VALID,352,VALID,0.0015625,
2008-04-18, 03:16:04,VALID,1001.4,VALID,0,VALID,96.8029,VALID,0,VALID,23.7053,VALID,352,VALID,0.302734,
2008-04-18, 03:17:04,VALID,1001.38,VALID,0,VALID,96.8105,VALID,0,VALID,23.7248,VALID,352,VALID,0.0503906,
2008-04-18, 03:18:04,VALID,1001.36,VALID,0,VALID,96.7952,VALID,0,VALID,23.7461,VALID,353,VALID,0.357812,
2008-04-18, 03:19:04,VALID,1001.37,VALID,0,VALID,96.8258,VALID,0,VALID,23.7655,VALID,353,VALID,0.487109,
2008-04-18, 03:20:04,VALID,1001.38,VALID,0,VALID,96.8029,VALID,0,VALID,23.785,VALID,356,VALID,0.673047,
2008-04-18, 03:21:04,VALID,1001.38,VALID,0,VALID,96.7952,VALID,0,VALID,23.7637,VALID,358,VALID,0.672266,
2008-04-18, 03:22:04,VALID,1001.36,VALID,0,VALID,96.8181,VALID,0,VALID,23.7832,VALID,355,VALID,0.408984,
2008-04-18, 03:23:04,VALID,1001.37,VALID,0,VALID,96.8181,VALID,0,VALID,23.8045,VALID,354,VALID,0.594922,
2008-04-18, 03:24:04,VALID,1001.42,VALID,0,VALID,96.841,VALID,0,VALID,23.8629,VALID,354,VALID,0.737109,
2008-04-18, 03:25:04,VALID,1001.41,VALID,0,VALID,96.841,VALID,0,VALID,23.8611,VALID,356,VALID,0.572656,
2008-04-18, 03:26:04,VALID,1001.43,VALID,0,VALID,96.8334,VALID,0,VALID,23.8611,VALID,311,VALID,0.304688,
2008-04-18, 03:27:04,VALID,1001.43,VALID,0,VALID,96.8334,VALID,0,VALID,23.8805,VALID,347,VALID,1.14063,
2008-04-18, 03:28:04,VALID,1001.42,VALID,0,VALID,96.8029,VALID,0,VALID,23.8805,VALID,340,VALID,0.371875,
2008-04-18, 03:29:04,VALID,1001.39,VALID,0,VALID,96.8258,VALID,0,VALID,23.8787,VALID,2,VALID,0.224219,
2008-04-18, 03:30:04,VALID,1001.37,VALID,0,VALID,96.8029,VALID,0,VALID,23.9,VALID,355,VALID,0.835938,
2008-04-18, 03:31:04,VALID,1001.32,VALID,0,VALID,96.7952,VALID,0,VALID,23.8593,VALID,4,VALID,1.00156,
2008-04-18, 03:32:04,VALID,1001.31,VALID,0,VALID,96.8181,VALID,0,VALID,23.8593,VALID,323,VALID,0.830469,
2008-04-18, 03:33:04,VALID,1001.27,VALID,0,VALID,96.7952,VALID,0,VALID,23.8805,VALID,2,VALID,0.565234,
2008-04-18, 03:34:04,VALID,1001.25,VALID,0,VALID,96.7876,VALID,0,VALID,23.8593,VALID,348,VALID,1.2375,
2008-04-18, 03:35:04,VALID,1001.19,VALID,0.5,VALID,96.78,VALID,0,VALID,23.8611,VALID,338,VALID,1.07852,
2008-04-18, 03:36:04,VALID,1001.2,VALID,0,VALID,96.78,VALID,0,VALID,23.8611,VALID,358,VALID,0.94375,
2008-04-18, 03:37:04,VALID,1001.14,VALID,0,VALID,96.78,VALID,0,VALID,23.8611,VALID,357,VALID,1.54805,
2008-04-18, 03:38:04,VALID,1001.09,VALID,0,VALID,96.7876,VALID,0,VALID,23.8416,VALID,3,VALID,0.873438,
2008-04-18, 03:39:04,VALID,1001.09,VALID,0,VALID,96.78,VALID,0,VALID,23.8398,VALID,344,VALID,0.898438,
2008-04-18, 03:40:04,VALID,1001.05,VALID,0,VALID,96.78,VALID,0,VALID,23.8611,VALID,350,VALID,0.458203,
2008-04-18, 03:41:04,VALID,1001.07,VALID,0,VALID,96.7876,VALID,0,VALID,23.8805,VALID,14,VALID,0.522266,
2008-04-18, 03:42:04,VALID,1001.04,VALID,0,VALID,96.7952,VALID,0,VALID,23.8805,VALID,317,VALID,1.17539,